Location: Antin
(43.3330°N, 0.2804°E)
Time: 23:25:22
(UTC+00:00)

H-2A R/B - Pass Details

Date: 16 October 2021
Orbit: 732 x 837 km, 98.2° (Epoch: 04 December)

Event Time Altitude Azimuth Distance (km) Brightness Sun altitude
Rises 18:23:05 0° 177° (S) 3,295 5.3 -13.3°
Reaches altitude 10° 18:25:25 10° 182° (S) 2,384 4.6 -13.7°
Maximum altitude 18:30:37 56° 260° (W) 970 2.9 -14.7°
Drops below altitude 10° 18:35:58 10° 339° (NNW) 2,450 4.9 -15.7°
Sets 18:38:25 0° 343° (NNW) 3,394 5.6 -16.1°
